Regional Weather Roundup
Issued by NWS State College, PA

Home | Current Version | Previous Version | Graphics & Text | Print | Product List | Glossary Off
Versions: 1 2 3 4 5 6 7 8 9 10 11 12 13 14 15 16 17 18 19 20 21 22 23 24 25 26 27 28 29 30 31 32 33 34 35 36 37 38 39 40 41 42 43 44 45 46 47 48 49 50

000
ASUS41 KCTP 271903
RWRCTP

REGIONAL WEATHER ROUNDUP
NATIONAL WEATHER SERVICE STATE COLLEGE PA
200 PM EST THU NOV 27 2014

Note: "fair" indicates few or no clouds below 12,000 feet with no
significant weather and/or obstructions to visibility.

* = STATION THAT DOES NOT REPORT PRECIPITATION /E.G. RAIN...SNOW...ETC/
    THUNDER OR FOG.

PAZ002>004-007>009-013>016-020>023-029>032-272000-
WESTERN PENNSYLVANIA

CITY           SKY/WX    TMP DP  RH WIND       PRES   REMARKS
ERIE           CLOUDY    35  25  66 W9        30.08R
MEADVILLE      FLURRIES  31  25  78 W10G18    30.05R
FRANKLIN*      CLOUDY    30  27  86 W5        30.05R
NEW CASTLE     FLURRIES  32  27  82 NW10      30.10S
BEAVER COUNTY  NOT AVBL
BUTLER*        CLOUDY    32  30  93 W5        30.07S
PITTSBURGH INT LGT SNOW  34  31  88 W13       30.07R VSB 1
PITTSBURGH     LGT SNOW  34  27  75 W10       30.05S
INDIANA*       CLOUDY    34  30  86 NW6       30.06S
LATROBE        FLURRIES  36  28  75 W9        30.07R
WASHINGTON CO* CLOUDY    34  28  80 W8        30.09S
$$

PAZ004>006-010>012-017>019-024>028-033>037-041-042-045-046-049>053-272000-
CENTRAL PENNSYLVANIA

CITY           SKY/WX    TMP DP  RH WIND       PRES   REMARKS
BRADFORD       CLOUDY    31  20  63 NW12      29.96S
DUBOIS         CLOUDY    32  25  75 W9        29.99R
CLEARFIELD     CLOUDY    32  28  85 N5        30.00S
JOHNSTOWN      CLOUDY    29  25  85 W9        29.97S
ALTOONA        CLOUDY    34  26  72 NW8       30.00S
STATE COLLEGE  SNOW      32  30  93 CALM      30.00S VSB 1/2
WILLIAMSPORT   PTSUNNY   35  26  69 W9        30.02S
SELINSGROVE    CLOUDY    36  28  73 N5        30.04R
FT INDIANTOWN  PTSUNNY   37  28  69 VRB7      30.03R
CAPITAL CITY   CLOUDY    37  27  67 W6        30.04S
HARRISBURG     CLOUDY    36  27  69 NW7       30.04R
YORK           PTSUNNY   37  29  72 NW6       30.03S
$$

PAZ038>040-043-044-047-048-054-055-060>062-067>071-272000-
EASTERN PENNSYLVANIA

CITY           SKY/WX    TMP DP  RH WIND       PRES   REMARKS
SCRANTON       CLOUDY    33  25  72 NW13      29.98S
MOUNT POCONO   MIX PCPN  30  22  72 NW13      29.91S
ALLENTOWN      MOSUNNY   36  25  64 W9        30.00S
QUAKERTOWN*    CLOUDY    36  27  69 NW6       30.01R
READING        CLOUDY    37  28  70 NW7       30.01S
LANCASTER      CLOUDY    36  27  69 NW7       30.03R
COATESVILLE    CLOUDY    36  28  75 NW10      30.01S
POTTSTOWN      CLOUDY    36  28  73 NW6       30.02S
BLUE BELL      CLOUDY    37  30  75 W6        30.00S
DOYLESTOWN     CLOUDY    34  28  79 NW8       29.99S
WILLOW GROVE   NOT AVBL
NORTH PHILA    CLOUDY    40  27  59 NW12      30.02S
PHILADELPHIA   PTSUNNY   40  27  59 W13       30.02S
$$


USA.gov is the U.S. government's official web portal to all federal, state and local government web resources and services.